Regional Weather Roundup
Issued by NWS

Home | Current Version | Previous Version | Graphics & Text | Print | Product List | Glossary On
Versions: 1 2 3 4 5 6 7 8 9 10 11 12 13 14 15 16 17 18 19 20 21 22 23 24 25 26 27 28 29 30 31 32 33 34 35 36 37 38 39 40 41 42 43 44 45 46 47 48 49 50
000
ASUS43 KLSX 301657
RWRMO

WEATHER SUMMARY FOR MISSOURI
NATIONAL WEATHER SERVICE SPRINGFIELD MO
1200 PM CDT THU MAR 30 2017

NOTE: "FAIR" INDICATES FEW OR NO CLOUDS BELOW 12,000 FEET WITH NO
       SIGNIFICANT WEATHER AND/OR OBSTRUCTIONS TO VISIBILITY.
       CURRENT SKY AND/OR WEATHER CONDITIONS ARE NOT AVAILABLE FOR
       CHILLICOTHE AND FARMINGTON.

MOZ001>031-035>038-043-044-053-054-301800-
...NORTHERN AND WESTERN MISSOURI...

CITY           SKY/WX    TMP DP  RH WIND       PRES   REMARKS
KANSAS CTY INT CLOUDY    49  48  97 N12       29.57S
LEE`S SUMMIT   LGT RAIN  50  48  93 VRB3      29.57F FOG
ST JOSEPH      CLOUDY    48  47  96 N15       29.61S
CHILLICOTHE      N/A     50  49  96 N6        29.59S
KIRKSVILLE     CLOUDY    50  49  96 N8        29.58F FOG

$$
MOZ066>068-077>081-088>096-101>105-301800-
...SOUTHWEST MISSOURI...

CITY           SKY/WX    TMP DP  RH WIND       PRES   REMARKS
SPRINGFIELD    CLOUDY    50  41  71 SW20      29.61R
JOPLIN         CLOUDY    48  45  89 SW18G26   29.62S
BRANSON        CLOUDY    48  37  66 SW10G16   29.66S

$$
MOZ032>034-039>042-045>050-055>058-069>072-301800-
...CENTRAL MISSOURI...

CITY           SKY/WX    TMP DP  RH WIND       PRES   REMARKS
COLUMBIA       NOT AVBL
JEFFERSON CITY PTSUNNY   56  47  71 SW7       29.58F
ROLLA          CLOUDY    53  50  89 W10       29.57F
SEDALIA        CLOUDY    52  43  71 SW10      29.59F
WARRENSBURG    CLOUDY    52  46  82 SE8       29.57F

$$
MOZ051-052-059>065-301800-
...EAST CENTRAL MISSOURI...

CITY           SKY/WX    TMP DP  RH WIND       PRES   REMARKS
ST LOUIS INTL  TSTM      69  58  67 S9        29.51F

$$
MOZ072>076-082>087-097>100-106>115-301800-
...SOUTH CENTRAL AND SOUTHEAST MISSOURI...

CITY           SKY/WX    TMP DP  RH WIND       PRES   REMARKS
CAPE GIRARDEAU PTSUNNY   70  59  68 S25G38    29.58F
POPLAR BLUFF   LGT RAIN  67  60  78 SW26G32   29.57F
WEST PLAINS    PTSUNNY   56  46  69 SW13G22   29.61F

$$


USA.gov is the U.S. government's official web portal to all federal, state and local government web resources and services.